Location: Unspecified
(34.4950°S, 58.5160°W)
Time: 14:23:10
(UTC+00:00)

Cosmos 1655 Rocket - Pass Details

Date: 07 July 2022
Orbit: 971 x 1005 km, 83.0° (Epoch: 11 August)

Event Time Altitude Azimuth Distance (km) Brightness Sun altitude
Rises 23:52:01 0° 322° (NW) 3,719 7.6 -35.3°
Reaches altitude 10° 23:55:01 10° 309° (NW) 2,780 6.9 -35.9°
Maximum altitude 00:00:11 26° 255° (WSW) 1,899 5.9 -37.0°
Drops below altitude 10° 00:05:25 10° 200° (SSW) 2,806 6.5 -38.1°
Enters shadow 00:08:00 - 189° (S) 3,604 7.0 -38.6°
